Location: Brownlee
(50.7397°N, 106.0159°W)
Time: 07:44:30
(UTC+00:00)

Envisat - Pass Details

Date: 04 December 2022
Orbit: 763 x 765 km, 98.2° (Epoch: 04 February)

Event Time Altitude Azimuth Distance (km) Brightness Sun altitude
Rises 13:41:30 0° 0° (N) 3,247 6.0 -10.0°
Reaches altitude 10° 13:45:54 10° 324° (NW) 2,315 5.0 -9.4°
Maximum altitude 13:46:58 11° 312° (NW) 2,269 4.8 -9.2°
Enters shadow 13:47:13 11° 309° (NW) 2,271 4.8 -9.2°
